Location: Edemissen
(51.7689°N, 9.8634°E)
Time: 09:56:20
(UTC+00:00)

CZ-2C R/B - Pass Details

Date: 15 June 2024
Orbit: 784 x 868 km, 98.3° (Epoch: 22 July)

Event Time Altitude Azimuth Distance (km) Brightness Sun altitude
Exits shadow 01:51:07 - 187° (S) 2,682 4.8 -8.0°
Reaches altitude 10° 01:51:55 10° 190° (S) 2,380 4.5 -8.0°
Maximum altitude 01:56:57 45° 262° (W) 1,114 3.1 -7.5°
Drops below altitude 10° 02:02:07 10° 335° (NNW) 2,450 5.5 -7.0°
Sets 02:04:38 0° 342° (NNW) 3,402 6.4 -6.8°
